Regional Weather Roundup
Issued by NWS

Home | Current Version | Previous Version | Text Only | Print | Product List | Glossary Off
Versions: 1 2 3 4 5 6 7 8 9 10 11 12 13 14 15 16 17 18 19 20 21 22 23 24 25 26 27 28 29 30 31 32 33 34 35 36 37 38 39 40 41 42 43 44 45 46 47 48 49 50

000
ASUS43 KLMK 241402
RWRKY
KENTUCKY REGIONAL WEATHER ROUNDUP
NATIONAL WEATHER SERVICE LOUISVILLE KY
900 AM EST SAT FEB 24 2018

NOTE "FAIR" INDICATES FEW OR NO CLOUDS BELOW 12,000 FEET
WITH NO SIGNIFICANT WEATHER AND/OR OBSTRUCTIONS TO VISIBILITY.

KYZ001>023-026-027-061>063-070>075-241500-
WESTERN AND SOUTH CENTRAL KENTUCKY

CITY           SKY/WX    TMP DP  RH WIND       PRES   REMARKS
PADUCAH        CLOUDY    51  49  92 NE8       30.01S FOG
HENDERSON      LGT RAIN  49  48  97 N10       30.09R FOG
OWENSBORO      LGT RAIN  51  50  96 NE12      30.05F VSB 1
HOPKINSVILLE   CLOUDY    61  61 100 S8        30.02S
BOWLING GREEN  CLOUDY    62  61  96 SW7       30.03S FOG
GLASGOW        NOT AVBL
$$

KYZ024-025-028>034-038-045-046-053-241500-
NORTH CENTRAL KENTUCKY

CITY           SKY/WX    TMP DP  RH WIND       PRES   REMARKS
LOUISVILLE/SDF DRIZZLE   52  50  93 N6        30.06S FOG
LOUISVILLE/LOU LGT RAIN  52  51  97 N7        30.07S FOG
FORT KNOX      LGT RAIN  51  51 100 N7        30.05S FOG
$$

KYZ035>037-039>044-047>052-055>060-089>105-241500-
NORTHEAST KENTUCKY

CITY           SKY/WX    TMP DP  RH WIND       PRES   REMARKS
LEXINGTON      CLOUDY    57  54  89 NE5       30.05F FOG
COVINGTON      LGT RAIN  48  47  96 NE10      30.10R FOG
FRANKFORT      CLOUDY    55  52  89 NE7       30.04F
$$

KYZ054-064>069-076>088-106>120-241500-
SOUTHEAST KENTUCKY

CITY           SKY/WX    TMP DP  RH WIND       PRES   REMARKS
JACKSON        RAIN      60  58  92 CALM      30.09F FOG
LONDON         CLOUDY    62  60  93 S7        30.07F
SOMERSET       NOT AVBL
MIDDLESBORO    CLOUDY    62  60  94 S6        30.13F
MONTICELLO     PTSUNNY   66  61  84 SW16G26   30.07F
$$





USA.gov is the U.S. government's official web portal to all federal, state and local government web resources and services.